User: anonymous   Login
Location: Unspecified
(0.0000°N, 0.0000°E)
Time: 18:16:50
(UTC+02:00)
Language:

NOAA 12 - Orbit

View from above orbital plane
View from above orbital plane
View from above satellite
View from above satellite

Ground track
Ground track

The orbit data is extracted from the following two-line orbital elements,

1 21263U 91032A   15248.52453095  .00000002  00000-0  19256-4 0  9991
2 21263  98.6253 274.2275 0014193  25.4253 138.9500 14.25775234264016
Epoch (UTC): 05 September 2015 12:35:19
Eccentricity: 0.0014193
inclination: 98.6253°
perigee height: 795 km
apogee height: 816 km
right ascension of ascending node: 274.2275°
argument of perigee: 25.4253°
revolutions per day: 14.25775234
mean anomaly at epoch: 138.9500°
orbit number at epoch: 26401

The dashed part of the orbit path shows where the satellite is in the earth's shadow,  

DLR